Location: Tel Aviv
(32.0670°N, 34.7670°E)
Time: 16:10:35
(UTC+02:00)

Max Valier Satellite - Visible Passes

Search period start: 21 March 2023 00:00
Search period end: 31 March 2023 01:00
Orbit: 455 x 469 km, 97.2° (Epoch: 20 March)

Date Brightness Start Highest point End Pass type
(mag) Time Alt. Az. Time Alt. Az. Time Alt. Az.
21 Mar ? 19:24:58 28° S 19:26:36 66° W 19:30:00 10° NNW visible
22 Mar ? 18:53:20 18° SE 18:55:25 37° ENE 18:58:37 10° N visible
23 Mar ? 18:22:29 10° ESE 18:24:20 14° ENE 18:26:11 10° NE visible
23 Mar ? 19:55:33 16° SW 19:57:06 22° W 19:59:49 10° NW visible
24 Mar ? 20:23:49 24° S 20:25:44 68° W 20:29:08 10° NNW visible
25 Mar ? 19:52:05 16° SE 19:54:27 36° ENE 19:57:38 10° N visible
26 Mar ? 19:21:29 10° ESE 19:23:15 14° ENE 19:25:02 10° NE visible
26 Mar ? 20:54:10 15° SW 20:56:01 22° W 20:58:46 10° NW visible
27 Mar ? 20:22:21 21° S 20:24:32 70° W 20:27:57 10° NNW visible
28 Mar ? 19:50:30 13° SE 19:53:09 35° ENE 19:56:18 10° N visible
29 Mar ? 19:20:12 10° E 19:21:51 13° ENE 19:23:31 10° NE visible
29 Mar ? 20:52:29 14° SW 20:54:35 23° W 20:57:24 10° NW visible
30 Mar ? 20:20:34 18° S 20:23:00 74° W 20:26:26 10° NNW visible
